Weather in Lokot

Russia / Bryansk Oblast     52°33′39″N   34°34′37″E
temp.,
°C
wind,
m/s
gust,
m/s
humid.,
%
clouds,
%
prec.,
mm/h
press.,
hPa
HPBL,
m
11 may, tue
tue1100:00+7nne514739 0.0 1024378
03:00+6nne412785 0.0 1023317
06:00+6nne5138210 0.0 1023323
09:00+12nne7126919 0.0 1022464
12:00+17ne7106257 0.0 1021942
15:00+19ne7116189 0.0 10201558
18:00+13ese5107887 0.4 1022509
21:00+9ene399260 0.4 1023325
12 may, wed
wed1200:00+7ene412910 0.0 1023389
03:00+6e413900 0.0 1023495
06:00+5ene4119186 0.0 1024351
09:00+12e59675 0.0 1023817
12:00+14e6859100 0.1 10211653
15:00+15ene5753100 0.2 10191541
18:00+13ene5871100 0.3 10171088
21:00+9e2993100 1.9 1016380
13 may, thu
thu1300:00+8ene3109783 2.7 1014413
03:00+8ese5129215 3.5 1014547
06:00+7se4119685 0.0 1015460
09:00+11sse598050 0.1 1015983
12:00+15s685651 0.1 10141824
15:00+16s464980 0.1 10141916
18:00+15s356015 0.0 10141277
21:00+10sse2280100 0.0 101531
14 may, fri
fri1400:00+9se3583100 0.0 101580
03:00+10ese398398 0.0 1014190
06:00+11ese41191100 0.3 1014290
09:00+16se51184100 0.9 1012539
12:00+21se696829 0.3 10101277
15:00+21sse697799 4.9 10101129
18:00+20sse51081100 2.0 1008497
21:00+16sse3119156 3.5 1008262
15 may, sat
sat1500:00+14sse24961 0.0 100864
03:00+13sse23958 0.1 100848
06:00+12s379616 0.0 1008202
09:00+15sw478343 0.0 1008586
12:00+19sw466271 0.0 10101435
15:00+19sw466978 1.6 10101209
18:00+17sw36814 2.3 1011521
21:00+13ssw229015 2.7 101234